sat.trackr.live / text

‹ back to catalog

STARLINK-33938

NORAD 63778 · 2025-091D

PAYLOAD ACTIVE UNKNOWN

§ Identity

Operator
Country
US
Launch date
2025-05-02
Launch site
AFETR
Launch vehicle
Mass (kg)
RCS (m²)

Purposes: comms

External: N2YO · Heavens-Above · Gunter

§ Orbital elements

Epoch: 2026-09-20T02:21:26.566560Z

Period
94.27 min
Inclination
43.0043°
Eccentricity
0.0002164
Mean motion
15.27598663 rev/d
Perigee alt
481.5 km
Apogee alt
484.5 km
Semi-major
6,861.1 km
B*
6.4947e-4
RAAN
34.6793°
Arg perigee
263.7414°
Mean anomaly
96.3191°
Rev number
7,872

§ Raw data

STARLINK-339381 63778U 25091D   26263.09822415  .00017663  00000+0  64947-3 0  99932 63778  43.0043  34.6793 0002164 263.7414  96.3191 15.27598663 78724

JSON: /api/v1/satellites/63778 · /tle

For live sub-satellite position, see the globe view (requires WebGL).

§ Visibility from observer

Set your observer location to see the next 7 days of passes ≥ 10°. The values pass through the URL so the page stays shareable.

No JS? Fill the form by hand. The geolocation button needs JavaScript.